Location: Mount Kobau Star Party
(49.1167°N, 119.7333°W)
Time: 14:11:49
(UTC-07:00)

ACS3 Solar Sail - Pass Details

Date: 26 June 2024
Orbit: 992 x 1023 km, 97.4° (Epoch: 12 July)

Event Time Altitude Azimuth Distance (km) Brightness Sun altitude
Exits shadow 23:36:13 - 210° (SSW) 3,169 7.1 -15.1°
Reaches altitude 10° 23:37:33 10° 217° (SW) 2,755 6.8 -15.2°
Maximum altitude 23:42:34 25° 271° (W) 1,870 6.5 -15.4°
Drops below altitude 10° 23:47:37 10° 326° (NW) 2,764 8.4 -15.7°
Sets 23:50:36 0° 339° (NNW) 3,718 9.7 -15.8°
